Time,TemperatureF,DewpointF,PressureIn,WindDirection,WindDirectionDegrees,WindSpeedMPH,WindSpeedGustMPH,Humidity,HourlyPrecipIn,Conditions,Clouds,dailyrainin,SoftwareType,DateUTC
2013-06-03 00:04:00,67.3,55.6,29.91,ENE,67,3.0,9.2,66,0.08,,,-99.99,FreeWX 2.04,2013-06-03 04:04:00,
2013-06-03 00:14:00,67.1,55.8,29.91,North,-999,0.0,4.0,67,0.12,,,-99.99,FreeWX 2.04,2013-06-03 04:14:00,
2013-06-03 00:24:00,66.9,55.2,29.91,North,-999,0.0,0.0,66,0.12,,,-99.99,FreeWX 2.04,2013-06-03 04:24:00,
2013-06-03 00:34:00,66.7,55.0,29.88,North,-999,0.0,0.0,66,0.12,,,-99.99,FreeWX 2.04,2013-06-03 04:34:00,
2013-06-03 00:44:00,66.7,55.8,29.88,North,-999,0.0,0.0,68,0.12,,,-99.99,FreeWX 2.04,2013-06-03 04:44:00,
2013-06-03 00:54:00,66.7,55.8,29.88,North,-999,0.0,0.0,68,0.12,,,-99.99,FreeWX 2.04,2013-06-03 04:54:00,
2013-06-03 01:04:00,66.6,55.6,29.88,North,-999,0.0,0.0,68,0.04,,,-99.99,FreeWX 2.04,2013-06-03 05:04:00,
2013-06-03 01:14:00,66.6,55.6,29.88,North,-999,0.0,0.0,68,0.00,,,-99.99,FreeWX 2.04,2013-06-03 05:14:00,
2013-06-03 01:24:00,66.4,55.4,29.88,North,-999,0.0,0.0,68,0.00,,,-99.99,FreeWX 2.04,2013-06-03 05:24:00,
2013-06-03 01:34:00,66.4,55.4,29.88,North,-999,0.0,0.0,68,0.00,,,-99.99,FreeWX 2.04,2013-06-03 05:34:00,
2013-06-03 01:44:00,66.4,55.9,29.88,North,-999,0.0,0.0,69,0.00,,,-99.99,FreeWX 2.04,2013-06-03 05:44:00,
2013-06-03 01:54:00,66.4,55.9,29.88,North,-999,0.0,0.0,69,0.00,,,-99.99,FreeWX 2.04,2013-06-03 05:54:00,
2013-06-03 02:04:00,66.2,56.1,29.88,North,-999,0.0,0.0,70,0.00,,,-99.99,FreeWX 2.04,2013-06-03 06:04:00,
2013-06-03 02:14:00,66.0,55.9,29.88,North,-999,0.0,0.0,70,0.00,,,-99.99,FreeWX 2.04,2013-06-03 06:14:00,
2013-06-03 02:24:00,65.8,55.8,29.88,North,-999,0.0,0.0,70,0.00,,,-99.99,FreeWX 2.04,2013-06-03 06:24:00,
2013-06-03 02:34:00,65.7,55.9,29.88,North,-999,0.0,0.0,71,0.00,,,-99.99,FreeWX 2.04,2013-06-03 06:34:00,
2013-06-03 02:44:00,65.5,55.8,29.88,North,-999,0.0,0.0,71,0.00,,,-99.99,FreeWX 2.04,2013-06-03 06:44:00,
2013-06-03 02:54:00,65.3,56.1,29.88,North,-999,0.0,0.0,72,0.00,,,-99.99,FreeWX 2.04,2013-06-03 06:54:00,
2013-06-03 03:04:00,64.9,55.8,29.88,North,-999,0.0,0.0,72,0.00,,,-99.99,FreeWX 2.04,2013-06-03 07:04:00,
2013-06-03 03:14:00,64.8,55.2,29.88,North,-999,0.0,0.0,71,0.00,,,-99.99,FreeWX 2.04,2013-06-03 07:14:00,
2013-06-03 03:24:00,64.4,54.9,29.88,North,-999,0.0,0.0,71,0.00,,,-99.99,FreeWX 2.04,2013-06-03 07:24:00,
2013-06-03 03:34:00,64.2,54.7,29.88,North,-999,0.0,0.0,71,0.00,,,-99.99,FreeWX 2.04,2013-06-03 07:34:00,
2013-06-03 03:44:00,64.2,55.0,29.88,North,-999,0.0,0.0,72,0.00,,,-99.99,FreeWX 2.04,2013-06-03 07:44:00,
2013-06-03 03:54:00,64.2,55.0,29.88,North,-999,0.0,0.0,72,0.00,,,-99.99,FreeWX 2.04,2013-06-03 07:54:00,
2013-06-03 04:04:00,63.9,54.7,29.88,North,-999,0.0,0.0,72,0.00,,,-99.99,FreeWX 2.04,2013-06-03 08:04:00,
2013-06-03 04:14:00,63.9,54.7,29.88,North,-999,0.0,0.0,72,0.00,,,-99.99,FreeWX 2.04,2013-06-03 08:14:00,
2013-06-03 04:24:00,63.5,54.3,29.88,North,-999,0.0,0.0,72,0.00,,,-99.99,FreeWX 2.04,2013-06-03 08:24:00,
2013-06-03 04:34:00,63.3,54.1,29.88,North,-999,0.0,0.0,72,0.00,,,-99.99,FreeWX 2.04,2013-06-03 08:34:00,
2013-06-03 04:44:00,63.1,54.0,29.88,North,-999,0.0,0.0,72,0.00,,,-99.99,FreeWX 2.04,2013-06-03 08:44:00,
2013-06-03 04:54:00,63.1,54.3,29.88,North,-999,0.0,0.0,73,0.00,,,-99.99,FreeWX 2.04,2013-06-03 08:54:00,
2013-06-03 05:04:00,63.1,54.3,29.91,North,-999,0.0,0.0,73,0.00,,,-99.99,FreeWX 2.04,2013-06-03 09:04:00,
2013-06-03 05:14:00,63.1,54.3,29.91,North,-999,0.0,0.0,73,0.00,,,-99.99,FreeWX 2.04,2013-06-03 09:14:00,
2013-06-03 05:24:00,63.1,54.3,29.91,North,-999,0.0,0.0,73,0.00,,,-99.99,FreeWX 2.04,2013-06-03 09:24:00,
2013-06-03 05:34:00,63.0,54.5,29.91,North,-999,0.0,0.0,74,0.00,,,-99.99,FreeWX 2.04,2013-06-03 09:34:00,
2013-06-03 05:44:00,63.0,54.5,29.91,North,-999,0.0,0.0,74,0.00,,,-99.99,FreeWX 2.04,2013-06-03 09:44:00,
2013-06-03 05:54:00,63.0,54.5,29.91,North,-999,0.0,0.0,74,0.00,,,-99.99,FreeWX 2.04,2013-06-03 09:54:00,
2013-06-03 06:04:00,63.0,54.5,29.91,North,-999,0.0,0.0,74,0.00,,,-99.99,FreeWX 2.04,2013-06-03 10:04:00,
2013-06-03 06:14:00,63.0,54.5,29.91,North,-999,0.0,0.0,74,0.00,,,-99.99,FreeWX 2.04,2013-06-03 10:14:00,
2013-06-03 06:24:00,63.1,54.7,29.91,North,-999,0.0,0.0,74,0.00,,,-99.99,FreeWX 2.04,2013-06-03 10:24:00,
2013-06-03 06:34:00,63.0,54.1,29.91,North,-999,0.0,0.0,73,0.00,,,-99.99,FreeWX 2.04,2013-06-03 10:34:00,
2013-06-03 06:44:00,62.8,54.0,29.91,North,-999,0.0,0.0,73,0.00,,,-99.99,FreeWX 2.04,2013-06-03 10:44:00,
2013-06-03 06:54:00,63.0,54.5,29.91,North,-999,0.0,0.0,74,0.00,,,-99.99,FreeWX 2.04,2013-06-03 10:54:00,
2013-06-03 07:04:00,63.1,54.7,29.91,North,-999,0.0,0.0,74,0.00,,,-99.99,FreeWX 2.04,2013-06-03 11:04:00,
2013-06-03 07:14:00,63.3,54.9,29.91,North,-999,0.0,0.0,74,0.00,,,-99.99,FreeWX 2.04,2013-06-03 11:14:00,
2013-06-03 07:24:00,63.5,55.4,29.94,North,-999,0.0,0.0,75,0.00,,,-99.99,FreeWX 2.04,2013-06-03 11:24:00,
2013-06-03 07:34:00,63.9,55.4,29.94,North,-999,0.0,0.0,74,0.00,,,-99.99,FreeWX 2.04,2013-06-03 11:34:00,
2013-06-03 07:44:00,63.9,55.4,29.94,North,-999,0.0,0.0,74,0.00,,,-99.99,FreeWX 2.04,2013-06-03 11:44:00,
2013-06-03 07:54:00,63.7,54.9,29.94,North,-999,0.0,0.0,73,0.00,,,-99.99,FreeWX 2.04,2013-06-03 11:54:00,
2013-06-03 08:05:00,63.9,55.0,29.94,North,-999,0.0,0.0,73,0.00,,,-99.99,FreeWX 2.04,2013-06-03 12:05:00,
2013-06-03 08:15:00,63.9,55.0,29.94,North,-999,0.0,0.0,73,0.00,,,-99.99,FreeWX 2.04,2013-06-03 12:15:00,
2013-06-03 08:25:00,64.0,55.2,29.94,North,-999,0.0,0.0,73,0.00,,,-99.99,FreeWX 2.04,2013-06-03 12:25:00,
2013-06-03 08:35:00,63.9,54.7,29.94,North,-999,0.0,0.0,72,0.00,,,-99.99,FreeWX 2.04,2013-06-03 12:35:00,
2013-06-03 08:45:00,64.2,55.4,29.94,North,-999,0.0,0.0,73,0.00,,,-99.99,FreeWX 2.04,2013-06-03 12:45:00,
2013-06-03 08:55:00,64.6,55.8,29.97,North,-999,0.0,0.0,73,0.00,,,-99.99,FreeWX 2.04,2013-06-03 12:55:00,
2013-06-03 09:05:00,64.9,56.1,29.97,North,-999,0.0,0.0,73,0.00,,,-99.99,FreeWX 2.04,2013-06-03 13:05:00,
2013-06-03 09:15:00,65.3,56.1,29.97,North,-999,0.0,0.0,72,0.00,,,-99.99,FreeWX 2.04,2013-06-03 13:15:00,
2013-06-03 09:25:00,65.3,55.6,29.97,North,-999,0.0,0.0,71,0.00,,,-99.99,FreeWX 2.04,2013-06-03 13:25:00,
2013-06-03 09:35:00,65.5,54.7,29.97,North,-999,0.0,0.0,68,0.00,,,-99.99,FreeWX 2.04,2013-06-03 13:35:00,
2013-06-03 09:45:00,66.2,55.4,29.97,North,-999,0.0,0.0,68,0.00,,,-99.99,FreeWX 2.04,2013-06-03 13:45:00,
2013-06-03 09:55:00,66.4,55.0,29.97,North,-999,0.0,0.0,67,0.00,,,-99.99,FreeWX 2.04,2013-06-03 13:55:00,
2013-06-03 10:05:00,66.2,54.5,29.97,North,-999,0.0,0.0,66,0.00,,,-99.99,FreeWX 2.04,2013-06-03 14:05:00,
2013-06-03 10:15:00,66.7,55.0,29.97,North,-999,0.0,0.0,66,0.00,,,-99.99,FreeWX 2.04,2013-06-03 14:15:00,
2013-06-03 10:25:00,66.7,54.7,29.97,North,-999,0.0,0.0,65,0.00,,,-99.99,FreeWX 2.04,2013-06-03 14:25:00,
2013-06-03 10:35:00,66.7,53.8,29.97,North,-999,0.0,0.0,63,0.00,,,-99.99,FreeWX 2.04,2013-06-03 14:35:00,
2013-06-03 10:45:00,66.7,52.9,29.97,North,-999,0.0,0.0,61,0.00,,,-99.99,FreeWX 2.04,2013-06-03 14:45:00,
2013-06-03 10:55:00,66.9,51.6,29.97,North,-999,0.0,3.1,58,0.00,,,-99.99,FreeWX 2.04,2013-06-03 14:55:00,
2013-06-03 11:05:00,67.8,51.1,29.97,North,-999,0.0,2.7,55,0.00,,,-99.99,FreeWX 2.04,2013-06-03 15:05:00,
2013-06-03 11:15:00,68.0,50.2,29.97,North,-999,0.0,2.7,53,0.00,,,-99.99,FreeWX 2.04,2013-06-03 15:15:00,
2013-06-03 11:25:00,68.4,51.1,29.97,North,-999,0.0,0.0,54,0.00,,,-99.99,FreeWX 2.04,2013-06-03 15:25:00,
2013-06-03 11:35:00,68.7,51.4,29.97,North,-999,0.0,0.0,54,0.00,,,-99.99,FreeWX 2.04,2013-06-03 15:35:00,
2013-06-03 11:45:00,71.6,52.0,29.97,North,-999,0.0,4.5,50,0.00,,,-99.99,FreeWX 2.04,2013-06-03 15:45:00,
2013-06-03 11:55:00,71.8,44.8,29.97,North,-999,0.0,4.5,38,0.00,,,-99.99,FreeWX 2.04,2013-06-03 15:55:00,
2013-06-03 12:05:00,72.1,46.4,29.97,North,-999,0.0,4.5,40,0.00,,,-99.99,FreeWX 2.04,2013-06-03 16:05:00,
2013-06-03 12:15:00,72.0,45.7,29.97,North,-999,0.0,2.7,39,0.00,,,-99.99,FreeWX 2.04,2013-06-03 16:15:00,
2013-06-03 12:25:00,73.4,44.1,30.00,WNW,297,1.0,4.5,35,0.00,,,-99.99,FreeWX 2.04,2013-06-03 16:25:00,
2013-06-03 12:35:00,75.2,47.8,29.97,North,-999,0.0,4.9,38,0.00,,,-99.99,FreeWX 2.04,2013-06-03 16:35:00,
2013-06-03 12:45:00,76.5,43.5,29.97,North,-999,0.0,4.5,31,0.00,,,-99.99,FreeWX 2.04,2013-06-03 16:45:00,
2013-06-03 12:55:00,76.8,43.0,30.00,North,-999,0.0,4.0,30,0.00,,,-99.99,FreeWX 2.04,2013-06-03 16:55:00,
2013-06-03 13:05:00,75.6,37.2,29.97,North,-999,0.0,4.0,25,0.00,,,-99.99,FreeWX 2.04,2013-06-03 17:05:00,
2013-06-03 13:15:00,75.4,39.0,29.97,North,-999,0.0,2.7,27,0.00,,,-99.99,FreeWX 2.04,2013-06-03 17:15:00,
2013-06-03 13:25:00,74.1,42.4,29.97,North,-999,0.0,0.0,32,0.00,,,-99.99,FreeWX 2.04,2013-06-03 17:25:00,
2013-06-03 13:35:00,74.8,42.1,29.97,North,-999,0.0,4.5,31,0.00,,,-99.99,FreeWX 2.04,2013-06-03 17:35:00,
2013-06-03 13:45:00,78.6,37.8,29.97,North,-999,0.0,6.3,23,0.00,,,-99.99,FreeWX 2.04,2013-06-03 17:45:00,
2013-06-03 13:55:00,75.9,37.6,29.97,North,-999,0.0,4.9,25,0.00,,,-99.99,FreeWX 2.04,2013-06-03 17:55:00,
2013-06-03 14:05:00,74.5,37.4,29.97,North,-999,0.0,3.6,26,0.00,,,-99.99,FreeWX 2.04,2013-06-03 18:05:00,
2013-06-03 14:15:00,77.5,35.6,29.97,SSW,196,1.0,5.4,22,0.00,,,-99.99,FreeWX 2.04,2013-06-03 18:15:00,
2013-06-03 14:25:00,77.2,34.2,29.97,North,-999,0.0,4.0,21,0.00,,,-99.99,FreeWX 2.04,2013-06-03 18:25:00,
2013-06-03 14:35:00,76.6,37.0,29.97,North,-999,0.0,4.9,24,0.00,,,-99.99,FreeWX 2.04,2013-06-03 18:35:00,
2013-06-03 14:45:00,80.2,36.7,29.97,North,-999,0.0,5.4,21,0.00,,,-99.99,FreeWX 2.04,2013-06-03 18:45:00,
2013-06-03 14:55:00,79.0,34.5,29.97,SSW,200,1.0,4.9,20,0.00,,,-99.99,FreeWX 2.04,2013-06-03 18:55:00,
2013-06-03 15:05:00,75.9,33.1,29.94,North,-999,0.0,0.0,21,0.00,,,-99.99,FreeWX 2.04,2013-06-03 19:05:00,
2013-06-03 15:15:00,78.1,34.9,29.94,North,-999,0.0,4.0,21,0.00,,,-99.99,FreeWX 2.04,2013-06-03 19:15:00,
2013-06-03 15:25:00,77.4,36.7,29.94,North,-999,0.0,5.8,23,0.00,,,-99.99,FreeWX 2.04,2013-06-03 19:25:00,
2013-06-03 15:35:00,79.2,34.7,29.94,South,172,1.0,4.0,20,0.00,,,-99.99,FreeWX 2.04,2013-06-03 19:35:00,
2013-06-03 15:45:00,77.4,34.3,29.94,North,-999,0.0,3.6,21,0.00,,,-99.99,FreeWX 2.04,2013-06-03 19:45:00,
2013-06-03 15:55:00,78.8,35.6,29.94,North,-999,0.0,5.4,21,0.00,,,-99.99,FreeWX 2.04,2013-06-03 19:55:00,
2013-06-03 16:05:00,79.7,36.3,29.94,North,-999,0.0,6.3,21,0.00,,,-99.99,FreeWX 2.04,2013-06-03 20:05:00,
2013-06-03 16:15:00,79.0,34.5,29.94,NE,56,1.0,4.5,20,0.00,,,-99.99,FreeWX 2.04,2013-06-03 20:15:00,
2013-06-03 16:25:00,76.5,32.4,29.94,North,-999,0.0,5.8,20,0.00,,,-99.99,FreeWX 2.04,2013-06-03 20:25:00,
2013-06-03 16:35:00,76.5,33.6,29.94,South,177,1.0,5.4,21,0.00,,,-99.99,FreeWX 2.04,2013-06-03 20:35:00,
2013-06-03 16:45:00,75.4,33.8,29.94,North,-999,0.0,4.0,22,0.00,,,-99.99,FreeWX 2.04,2013-06-03 20:45:00,
2013-06-03 16:55:00,75.2,33.8,29.94,North,-999,0.0,0.0,22,0.00,,,-99.99,FreeWX 2.04,2013-06-03 20:55:00,
2013-06-03 17:05:00,75.0,33.6,29.91,North,-999,0.0,0.0,22,0.00,,,-99.99,FreeWX 2.04,2013-06-03 21:05:00,
2013-06-03 17:15:00,74.5,33.1,29.91,North,-999,0.0,2.7,22,0.00,,,-99.99,FreeWX 2.04,2013-06-03 21:15:00,
2013-06-03 17:25:00,74.1,34.0,29.94,North,-999,0.0,0.0,23,0.00,,,-99.99,FreeWX 2.04,2013-06-03 21:25:00,
2013-06-03 17:35:00,73.4,41.0,29.91,North,-999,0.0,0.0,31,0.00,,,-99.99,FreeWX 2.04,2013-06-03 21:35:00,
2013-06-03 17:45:00,73.2,35.2,29.91,North,-999,0.0,4.0,25,0.00,,,-99.99,FreeWX 2.04,2013-06-03 21:45:00,
2013-06-03 17:55:00,73.9,34.9,29.91,North,-999,0.0,3.6,24,0.00,,,-99.99,FreeWX 2.04,2013-06-03 21:55:00,
2013-06-03 18:05:00,73.8,35.8,29.91,North,-999,0.0,0.0,25,0.00,,,-99.99,FreeWX 2.04,2013-06-03 22:05:00,
2013-06-03 18:15:00,73.0,35.1,29.91,North,-999,0.0,0.0,25,0.00,,,-99.99,FreeWX 2.04,2013-06-03 22:15:00,
2013-06-03 18:25:00,72.7,40.3,29.91,North,-999,0.0,0.0,31,0.00,,,-99.99,FreeWX 2.04,2013-06-03 22:25:00,
2013-06-03 18:35:00,72.0,40.5,29.91,North,-999,0.0,3.1,32,0.00,,,-99.99,FreeWX 2.04,2013-06-03 22:35:00,
2013-06-03 18:45:00,71.6,41.0,29.91,North,-999,0.0,3.6,33,0.00,,,-99.99,FreeWX 2.04,2013-06-03 22:45:00,
2013-06-03 18:55:00,70.7,40.1,29.91,North,-999,0.0,3.1,33,0.00,,,-99.99,FreeWX 2.04,2013-06-03 22:55:00,
2013-06-03 19:05:00,70.3,42.1,29.94,North,-999,0.0,3.1,36,0.00,,,-99.99,FreeWX 2.04,2013-06-03 23:05:00,
2013-06-03 19:15:00,70.0,41.0,29.94,North,-999,0.0,2.7,35,0.00,,,-99.99,FreeWX 2.04,2013-06-03 23:15:00,
2013-06-03 19:25:00,69.6,40.8,29.94,North,-999,0.0,0.0,35,0.00,,,-99.99,FreeWX 2.04,2013-06-03 23:25:00,
2013-06-03 19:35:00,69.4,41.4,29.94,North,-999,0.0,0.0,36,0.00,,,-99.99,FreeWX 2.04,2013-06-03 23:35:00,
2013-06-03 19:45:00,69.1,41.0,29.94,North,-999,0.0,0.0,36,0.00,,,-99.99,FreeWX 2.04,2013-06-03 23:45:00,
2013-06-03 19:55:00,68.9,41.5,29.94,North,-999,0.0,0.0,37,0.00,,,-99.99,FreeWX 2.04,2013-06-03 23:55:00,
2013-06-03 20:05:00,68.7,42.1,29.94,North,-999,0.0,0.0,38,0.00,,,-99.99,FreeWX 2.04,2013-06-04 00:05:00,
2013-06-03 20:15:00,68.4,41.7,29.94,North,-999,0.0,0.0,38,0.00,,,-99.99,FreeWX 2.04,2013-06-04 00:15:00,
2013-06-03 20:25:00,68.0,40.8,29.97,North,-999,0.0,0.0,37,0.00,,,-99.99,FreeWX 2.04,2013-06-04 00:25:00,
2013-06-03 20:35:00,67.6,41.2,29.97,North,-999,0.0,0.0,38,0.00,,,-99.99,FreeWX 2.04,2013-06-04 00:35:00,
2013-06-03 20:45:00,67.3,41.5,29.97,North,-999,0.0,0.0,39,0.00,,,-99.99,FreeWX 2.04,2013-06-04 00:45:00,
2013-06-03 20:55:00,66.9,41.2,29.97,North,-999,0.0,0.0,39,0.00,,,-99.99,FreeWX 2.04,2013-06-04 00:55:00,
2013-06-03 21:05:00,66.6,40.8,29.97,North,-999,0.0,0.0,39,0.00,,,-99.99,FreeWX 2.04,2013-06-04 01:05:00,
2013-06-03 21:15:00,66.4,41.4,29.97,North,-999,0.0,0.0,40,0.00,,,-99.99,FreeWX 2.04,2013-06-04 01:15:00,
2013-06-03 21:25:00,66.0,41.7,30.00,North,-999,0.0,0.0,41,0.00,,,-99.99,FreeWX 2.04,2013-06-04 01:25:00,
2013-06-03 21:35:00,65.8,40.8,30.00,North,-999,0.0,0.0,40,0.00,,,-99.99,FreeWX 2.04,2013-06-04 01:35:00,
2013-06-03 21:45:00,65.7,40.6,30.00,North,-999,0.0,0.0,40,0.00,,,-99.99,FreeWX 2.04,2013-06-04 01:45:00,
2013-06-03 21:55:00,65.5,41.2,30.00,North,-999,0.0,0.0,41,0.00,,,-99.99,FreeWX 2.04,2013-06-04 01:55:00,
2013-06-03 22:05:00,65.3,41.5,30.00,North,-999,0.0,0.0,42,0.00,,,-99.99,FreeWX 2.04,2013-06-04 02:05:00,
2013-06-03 22:15:00,64.8,41.2,30.00,North,-999,0.0,0.0,42,0.00,,,-99.99,FreeWX 2.04,2013-06-04 02:15:00,
2013-06-03 22:25:00,64.4,41.4,30.03,North,-999,0.0,0.0,43,0.00,,,-99.99,FreeWX 2.04,2013-06-04 02:25:00,
2013-06-03 22:35:00,63.9,41.0,30.03,North,-999,0.0,0.0,43,0.00,,,-99.99,FreeWX 2.04,2013-06-04 02:35:00,
2013-06-03 22:45:00,63.3,40.5,30.03,North,-999,0.0,0.0,43,0.00,,,-99.99,FreeWX 2.04,2013-06-04 02:45:00,
2013-06-03 22:55:00,63.0,40.6,30.03,North,-999,0.0,0.0,44,0.00,,,-99.99,FreeWX 2.04,2013-06-04 02:55:00,
2013-06-03 23:05:00,62.6,41.5,30.03,North,-999,0.0,0.0,46,0.00,,,-99.99,FreeWX 2.04,2013-06-04 03:05:00,
2013-06-03 23:15:00,62.4,42.4,30.03,North,-999,0.0,0.0,48,0.00,,,-99.99,FreeWX 2.04,2013-06-04 03:15:00,
2013-06-03 23:25:00,62.2,42.3,30.03,North,-999,0.0,0.0,48,0.00,,,-99.99,FreeWX 2.04,2013-06-04 03:25:00,
2013-06-03 23:35:00,62.1,42.1,30.03,North,-999,0.0,0.0,48,0.00,,,-99.99,FreeWX 2.04,2013-06-04 03:35:00,
2013-06-03 23:45:00,61.7,41.2,30.03,North,-999,0.0,0.0,47,0.00,,,-99.99,FreeWX 2.04,2013-06-04 03:45:00,
2013-06-03 23:55:00,61.5,42.3,30.03,North,-999,0.0,0.0,49,0.00,,,-99.99,FreeWX 2.04,2013-06-04 03:55:00,